Location: Delettes
(50.6178°N, 2.2123°E)
Time: 00:18:47
(UTC+00:00)

STARLINK-1048 - Pass Details

Date: 27 February 2020
Orbit: 549 x 550 km, 53.0° (Epoch: 09 April)

Event Time Altitude Azimuth Distance (km) Brightness Sun altitude
Rises 18:48:05 0° 276° (W) 2,722 9.2 -13.4°
Reaches altitude 10° 18:50:20 10° 280° (W) 1,828 7.7 -13.8°
Maximum altitude 18:54:27 61° 1° (N) 629 3.9 -14.4°
Enters shadow 18:56:44 25° 75° (ENE) 1,141 4.7 -14.8°
